UKV4006 EGPH-EGAC

Flight info

Callsign UKV4006
Flight time 0h 42m
Altitude 18000
Route TLA DCT TRN P600 BLACA DCT MAGEE
Aircraft AT76/M-SBDFGRY/S

Departure

Time 2026-04-18 10:55
Airport Edinburgh Airport (EGPH)

Arrival

Time 2026-04-18 11:38
Airport George Best Belfast City Airport (EGAC)
Time Latitude Longitude Altitude Speed Heading
2026-04-18 10:50 55.95147 -3.36312 104 ft 2 kts 353°
2026-04-18 10:50 55.95154 -3.36313 104 ft 0 kts 353°
2026-04-18 10:53 55.95155 -3.36313 104 ft 1 kts 353°
2026-04-18 10:53 55.95182 -3.36341 103 ft 10 kts 327°
2026-04-18 10:53 55.95235 -3.36397 103 ft 9 kts 330°
2026-04-18 10:54 55.95260 -3.36468 103 ft 4 kts 271°
2026-04-18 10:54 55.95254 -3.36497 103 ft 0 kts 242°
2026-04-18 10:55 55.95251 -3.36509 103 ft 12 kts 240°
2026-04-18 10:55 55.95095 -3.36973 105 ft 74 kts 239°
2026-04-18 10:55 55.94741 -3.37998 208 ft 109 kts 236°
2026-04-18 10:55 55.94319 -3.39062 753 ft 100 kts 232°
2026-04-18 10:56 55.93906 -3.40059 1207 ft 101 kts 234°
2026-04-18 10:56 55.93579 -3.41170 1648 ft 103 kts 239°
2026-04-18 10:56 55.93246 -3.42520 1695 ft 135 kts 239°
2026-04-18 10:56 55.92836 -3.44188 1868 ft 155 kts 241°
2026-04-18 10:57 55.92399 -3.45956 2317 ft 154 kts 235°
2026-04-18 10:57 55.91814 -3.47475 2828 ft 149 kts 230°
2026-04-18 10:57 55.91219 -3.48987 3276 ft 148 kts 232°
2026-04-18 10:57 55.90655 -3.50520 3728 ft 148 kts 232°
2026-04-18 10:58 55.90090 -3.52058 4169 ft 148 kts 232°
2026-04-18 10:58 55.89526 -3.53574 4602 ft 149 kts 232°
2026-04-18 10:58 55.88964 -3.55131 5012 ft 151 kts 232°
2026-04-18 10:58 55.88174 -3.56225 5381 ft 150 kts 189°
2026-04-18 10:59 55.87125 -3.55814 5703 ft 158 kts 170°
2026-04-18 10:59 55.86071 -3.55197 6078 ft 160 kts 168°
2026-04-18 10:59 55.85016 -3.54508 6462 ft 162 kts 168°
2026-04-18 10:59 55.83961 -3.53820 6839 ft 161 kts 168°
2026-04-18 11:00 55.82900 -3.53151 7196 ft 161 kts 169°
2026-04-18 11:00 55.81829 -3.52530 7536 ft 162 kts 171°
2026-04-18 11:00 55.80750 -3.51931 7879 ft 163 kts 171°
2026-04-18 11:00 55.79666 -3.51331 8231 ft 163 kts 171°
2026-04-18 11:01 55.78580 -3.50736 8577 ft 163 kts 171°
2026-04-18 11:01 55.77504 -3.50145 8898 ft 164 kts 171°
2026-04-18 11:01 55.76405 -3.49547 9236 ft 166 kts 171°
2026-04-18 11:02 55.74196 -3.48339 9900 ft 167 kts 171°
2026-04-18 11:02 55.73075 -3.47726 10179 ft 168 kts 171°
2026-04-18 11:02 55.71969 -3.47118 10472 ft 168 kts 171°
2026-04-18 11:02 55.70850 -3.46502 10778 ft 169 kts 171°
2026-04-18 11:03 55.69726 -3.45894 11049 ft 169 kts 172°
2026-04-18 11:03 55.68595 -3.45285 11340 ft 170 kts 171°
2026-04-18 11:03 55.67457 -3.44665 11621 ft 170 kts 171°
2026-04-18 11:03 55.66337 -3.44058 11919 ft 170 kts 171°
2026-04-18 11:04 55.65201 -3.43444 12224 ft 171 kts 171°
2026-04-18 11:04 55.64061 -3.42822 12502 ft 171 kts 171°
2026-04-18 11:04 55.62920 -3.42199 12771 ft 172 kts 171°
2026-04-18 11:04 55.61776 -3.41576 13033 ft 172 kts 171°
2026-04-18 11:05 55.60626 -3.40956 13287 ft 173 kts 171°
2026-04-18 11:05 55.59470 -3.40330 13529 ft 174 kts 171°
2026-04-18 11:05 55.58311 -3.39703 13799 ft 175 kts 171°
2026-04-18 11:05 55.57145 -3.39072 14019 ft 176 kts 171°
2026-04-18 11:06 55.55970 -3.38431 14249 ft 177 kts 171°
2026-04-18 11:06 55.54792 -3.37790 14443 ft 177 kts 171°
2026-04-18 11:06 55.53624 -3.37159 14644 ft 178 kts 171°
2026-04-18 11:06 55.52430 -3.36516 14814 ft 179 kts 171°
2026-04-18 11:07 55.51227 -3.35955 14944 ft 174 kts 183°
2026-04-18 11:07 55.50179 -3.36732 15091 ft 172 kts 229°
2026-04-18 11:07 55.49617 -3.38655 15302 ft 179 kts 240°
2026-04-18 11:07 55.49215 -3.40737 15512 ft 183 kts 246°
2026-04-18 11:08 55.48913 -3.42940 15741 ft 186 kts 249°
2026-04-18 11:08 55.48656 -3.45185 15947 ft 187 kts 250°
2026-04-18 11:08 55.48406 -3.47447 16123 ft 188 kts 250°
2026-04-18 11:08 55.48150 -3.49708 16330 ft 188 kts 250°
2026-04-18 11:09 55.47887 -3.51942 16520 ft 188 kts 250°
2026-04-18 11:09 55.47611 -3.54197 16706 ft 188 kts 250°
2026-04-18 11:09 55.47330 -3.56468 16872 ft 189 kts 250°
2026-04-18 11:09 55.47048 -3.58739 17068 ft 190 kts 250°
2026-04-18 11:10 55.46762 -3.61021 17295 ft 190 kts 250°
2026-04-18 11:10 55.46476 -3.63304 17489 ft 191 kts 250°
2026-04-18 11:10 55.46191 -3.65568 17669 ft 192 kts 250°
2026-04-18 11:10 55.45900 -3.67865 17849 ft 192 kts 250°
2026-04-18 11:11 55.45608 -3.70174 17993 ft 195 kts 250°
2026-04-18 11:11 55.45305 -3.72550 18058 ft 200 kts 250°
2026-04-18 11:11 55.44979 -3.74970 18085 ft 206 kts 250°
2026-04-18 11:11 55.44638 -3.77473 18099 ft 212 kts 250°
2026-04-18 11:12 55.44301 -3.79998 18098 ft 217 kts 250°
2026-04-18 11:12 55.43959 -3.82627 18096 ft 221 kts 251°
2026-04-18 11:12 55.43616 -3.85291 18111 ft 225 kts 251°
2026-04-18 11:12 55.43267 -3.87997 18112 ft 227 kts 251°
2026-04-18 11:13 55.42917 -3.90730 18107 ft 230 kts 251°
2026-04-18 11:13 55.42565 -3.93480 18104 ft 231 kts 251°
2026-04-18 11:13 55.42209 -3.96248 18103 ft 232 kts 251°
2026-04-18 11:13 55.41850 -3.99022 18113 ft 233 kts 251°
2026-04-18 11:14 55.41490 -4.01808 18119 ft 234 kts 251°
2026-04-18 11:14 55.41127 -4.04604 18121 ft 235 kts 251°
2026-04-18 11:14 55.40762 -4.07412 18136 ft 236 kts 251°
2026-04-18 11:14 55.40395 -4.10229 18125 ft 236 kts 251°
2026-04-18 11:15 55.40031 -4.13026 18130 ft 238 kts 251°
2026-04-18 11:15 55.39662 -4.15862 18129 ft 238 kts 251°
2026-04-18 11:15 55.39292 -4.18699 18133 ft 238 kts 251°
2026-04-18 11:15 55.38920 -4.21531 18129 ft 238 kts 251°
2026-04-18 11:16 55.38549 -4.24367 18137 ft 237 kts 251°
2026-04-18 11:16 55.38176 -4.27195 18133 ft 237 kts 251°
2026-04-18 11:16 55.37806 -4.30017 18149 ft 237 kts 251°
2026-04-18 11:16 55.37433 -4.32834 18147 ft 236 kts 251°
2026-04-18 11:17 55.37060 -4.35660 18154 ft 236 kts 251°
2026-04-18 11:17 55.36688 -4.38472 18149 ft 236 kts 251°
2026-04-18 11:17 55.36318 -4.41248 18149 ft 236 kts 251°
2026-04-18 11:17 55.35943 -4.44063 18152 ft 236 kts 251°
2026-04-18 11:18 55.35569 -4.46875 18154 ft 237 kts 251°
2026-04-18 11:18 55.35192 -4.49691 18154 ft 237 kts 251°
2026-04-18 11:18 55.34815 -4.52515 18153 ft 237 kts 251°
2026-04-18 11:18 55.34438 -4.55334 18151 ft 237 kts 251°
2026-04-18 11:19 55.34059 -4.58159 18154 ft 237 kts 251°
2026-04-18 11:19 55.33679 -4.60980 18157 ft 237 kts 251°
2026-04-18 11:19 55.33300 -4.63801 18156 ft 237 kts 251°
2026-04-18 11:19 55.32918 -4.66631 18158 ft 238 kts 251°
2026-04-18 11:20 55.32532 -4.69461 18153 ft 238 kts 251°
2026-04-18 11:20 55.32157 -4.72247 18153 ft 238 kts 251°
2026-04-18 11:20 55.31774 -4.75065 18157 ft 237 kts 251°
2026-04-18 11:20 55.31201 -4.77712 18162 ft 229 kts 229°
2026-04-18 11:21 55.30018 -4.79528 18160 ft 225 kts 214°
2026-04-18 11:21 55.28666 -4.80931 18161 ft 226 kts 208°
2026-04-18 11:21 55.27251 -4.82138 18155 ft 227 kts 206°
2026-04-18 11:21 55.26291 -4.82918 18008 ft 233 kts 206°
2026-04-18 11:22 55.24278 -4.84571 17550 ft 247 kts 207°
2026-04-18 11:22 55.23221 -4.85478 17299 ft 253 kts 207°
2026-04-18 11:22 55.21102 -4.87330 16830 ft 262 kts 207°
2026-04-18 11:22 55.19455 -4.88770 16456 ft 267 kts 207°
2026-04-18 11:23 55.18321 -4.89751 16212 ft 270 kts 207°
2026-04-18 11:23 55.16634 -4.91235 15851 ft 273 kts 208°
2026-04-18 11:23 55.14955 -4.92724 15480 ft 265 kts 208°
2026-04-18 11:23 55.13341 -4.94167 15133 ft 254 kts 208°
2026-04-18 11:24 55.11805 -4.95523 14809 ft 246 kts 208°
2026-04-18 11:24 55.10288 -4.96841 14479 ft 244 kts 207°
2026-04-18 11:24 55.08767 -4.98155 14167 ft 243 kts 208°
2026-04-18 11:24 55.07265 -4.99454 13932 ft 239 kts 207°
2026-04-18 11:25 55.05776 -5.00730 13674 ft 239 kts 207°
2026-04-18 11:25 55.04265 -5.02012 13418 ft 245 kts 207°
2026-04-18 11:25 55.02706 -5.03374 13051 ft 255 kts 208°
2026-04-18 11:25 55.01095 -5.04785 12693 ft 262 kts 208°
2026-04-18 11:26 54.99467 -5.06206 12360 ft 259 kts 208°
2026-04-18 11:26 54.97869 -5.07590 11999 ft 254 kts 208°
2026-04-18 11:26 54.96292 -5.08947 11646 ft 250 kts 208°
2026-04-18 11:26 54.94742 -5.10285 11314 ft 247 kts 208°
2026-04-18 11:27 54.93228 -5.11596 10977 ft 245 kts 208°
2026-04-18 11:27 54.91705 -5.12912 10655 ft 244 kts 208°
2026-04-18 11:27 54.90179 -5.14221 10338 ft 244 kts 208°
2026-04-18 11:27 54.88707 -5.15631 10005 ft 239 kts 220°
2026-04-18 11:28 54.87781 -5.17980 9662 ft 239 kts 245°
2026-04-18 11:28 54.87223 -5.20716 9307 ft 241 kts 251°
2026-04-18 11:28 54.86731 -5.23508 8962 ft 242 kts 251°
2026-04-18 11:28 54.86230 -5.26304 8629 ft 242 kts 250°
2026-04-18 11:29 54.85694 -5.29069 8297 ft 242 kts 249°
2026-04-18 11:29 54.85132 -5.31825 7948 ft 242 kts 249°
2026-04-18 11:29 54.84570 -5.34578 7637 ft 242 kts 249°
2026-04-18 11:29 54.84010 -5.37323 7317 ft 242 kts 249°
2026-04-18 11:30 54.83456 -5.40037 7002 ft 241 kts 250°
2026-04-18 11:30 54.82896 -5.42779 6690 ft 241 kts 250°
2026-04-18 11:30 54.82338 -5.45517 6356 ft 241 kts 250°
2026-04-18 11:30 54.81777 -5.48248 6013 ft 240 kts 250°
2026-04-18 11:31 54.81218 -5.50979 5665 ft 240 kts 249°
2026-04-18 11:31 54.80657 -5.53711 5328 ft 237 kts 250°
2026-04-18 11:31 54.80107 -5.56367 4998 ft 232 kts 250°
2026-04-18 11:31 54.79570 -5.58983 4671 ft 226 kts 250°
2026-04-18 11:32 54.79442 -5.61620 4357 ft 223 kts 279°
2026-04-18 11:32 54.79627 -5.64205 4055 ft 214 kts 258°
2026-04-18 11:32 54.78943 -5.66333 3764 ft 194 kts 226°
2026-04-18 11:32 54.78013 -5.67814 3448 ft 173 kts 224°
2026-04-18 11:33 54.77083 -5.69038 3078 ft 163 kts 218°
2026-04-18 11:33 54.76149 -5.70088 2698 ft 157 kts 216°
2026-04-18 11:33 54.75280 -5.71062 2533 ft 141 kts 217°
2026-04-18 11:33 54.74484 -5.71997 2392 ft 135 kts 218°
2026-04-18 11:34 54.73720 -5.72932 2204 ft 137 kts 218°
2026-04-18 11:34 54.72945 -5.73884 2086 ft 138 kts 218°
2026-04-18 11:34 54.72168 -5.74831 2027 ft 134 kts 218°
2026-04-18 11:34 54.71413 -5.75724 2010 ft 128 kts 218°
2026-04-18 11:35 54.70694 -5.76592 1991 ft 123 kts 218°
2026-04-18 11:35 54.70004 -5.77431 1990 ft 121 kts 217°
2026-04-18 11:35 54.69269 -5.78301 1815 ft 135 kts 218°
2026-04-18 11:35 54.68502 -5.79225 1648 ft 127 kts 219°
2026-04-18 11:36 54.67815 -5.80044 1454 ft 115 kts 220°
2026-04-18 11:36 54.67178 -5.80821 1224 ft 110 kts 220°
2026-04-18 11:36 54.66554 -5.81576 952 ft 110 kts 218°
2026-04-18 11:36 54.65928 -5.82307 858 ft 105 kts 219°
2026-04-18 11:37 54.65310 -5.83029 634 ft 111 kts 221°
2026-04-18 11:37 54.64688 -5.83846 599 ft 113 kts 223°
2026-04-18 11:37 54.64045 -5.84636 517 ft 113 kts 218°
2026-04-18 11:37 54.63392 -5.85381 387 ft 113 kts 219°
2026-04-18 11:38 54.62747 -5.86133 125 ft 111 kts 219°
2026-04-18 11:38 54.62152 -5.86852 18 ft 94 kts 218°
2026-04-18 11:38 54.61791 -5.87279 18 ft 42 kts 213°
2026-04-18 11:38 54.61576 -5.87532 17 ft 34 kts 213°
2026-04-18 11:39 54.61443 -5.87684 17 ft 15 kts 211°
2026-04-18 11:39 54.61349 -5.87794 17 ft 15 kts 201°
2026-04-18 11:39 54.61276 -5.87705 19 ft 14 kts 123°
2026-04-18 11:39 54.61271 -5.87577 19 ft 12 kts 40°
2026-04-18 11:40 54.61338 -5.87502 18 ft 13 kts 32°
2026-04-18 11:40 54.61404 -5.87401 18 ft 12 kts 51°
2026-04-18 11:40 54.61442 -5.87332 18 ft 0 kts 38°
2026-04-18 11:41 54.61461 -5.87309 18 ft 8 kts 36°
2026-04-18 11:41 54.61510 -5.87224 18 ft 6 kts 71°
2026-04-18 11:41 54.61520 -5.87171 20 ft 0 kts 90°
2026-04-18 11:41 54.61509 -5.87153 18 ft 0 kts 151°